This demonstration page uses our WeatherBlox Daily Observations layout. Learn more.

Left ArrowRight Arrow

Hourly Observations for October 20, 2016

Temp ( °F °C ) Dew Point ( °F °C ) Humidity (%) Winds ( mph kmh ) Pressure ( in mb ) Visibility ( mi km ) Precip ( " mm )
12:16 am 00:16 Cloudy 57 14 55 13 94 94 NNE 6 9 30.03 1017 10 16.0934 N/A
12:37 am 00:37 Cloudy 57 14 55 13 94 94 NNW 14 22 30.03 1017 7 11.26538 N/A
12:57 am 00:57 Cloudy 55 13 55 13 100 100 NNE 14 22 30 1016 3 4.82802 N/A
1:16 am 01:16 Cloudy 55 13 55 13 100 100 NNE 10 17 30.03 1017 5 8.0467 N/A
1:37 am 01:37 Cloudy 55 13 55 13 100 100 NNE 10 17 30 1016 5 8.0467 N/A
1:56 am 01:56 Cloudy 55 13 55 13 100 100 ENE 10 17 30 1016 5 8.0467 N/A
2:16 am 02:16 Cloudy 55 13 55 13 100 100 NE 3 6 30.03 1017 5 8.0467 N/A
2:37 am 02:37 Cloudy 57 14 55 13 94 94 N 7 11 30.03 1017 5 8.0467 N/A
2:56 am 02:56 Cloudy 55 13 55 13 100 100 N 8 13 30.03 1017 4 6.43736 N/A
3:17 am 03:17 Cloudy 55 13 55 13 100 100 NNE 12 19 30.03 1017 7 11.26538 N/A
3:37 am 03:37 Cloudy 54 12 54 12 100 100 ENE 9 15 30.03 1017 10 16.0934 N/A
3:56 am 03:56 Cloudy 54 12 54 12 100 100 ENE 7 11 30.03 1017 10 16.0934 N/A
4:17 am 04:17 Cloudy 54 12 54 12 100 100 NE 5 7 30 1016 10 16.0934 N/A
5:56 am 05:56 Cloudy 54 12 54 12 100 100 N 8 13 30.03 1017 10 16.0934 N/A
6:17 am 06:17 Cloudy 55 13 54 12 94 94 NNE 10 17 30.03 1017 10 16.0934 N/A
6:37 am 06:37 Cloudy 54 12 54 12 100 100 NNE 9 15 30 1016 10 16.0934 N/A
6:56 am 06:56 Cloudy 54 12 52 11 94 94 N 8 13 30.03 1017 10 16.0934 N/A
7:17 am 07:17 Cloudy 54 12 52 11 94 94 NE 6 9 30 1016 10 16.0934 N/A
7:37 am 07:37 Cloudy 54 12 52 11 94 94 NNE 8 13 30 1016 10 16.0934 N/A
7:56 am 07:56 Cloudy 54 12 52 11 94 94 NE 7 11 30 1016 10 16.0934 N/A
8:17 am 08:17 Cloudy 54 12 52 11 94 94 N 9 15 30 1016 10 16.0934 N/A
8:37 am 08:37 Cloudy 54 12 52 11 94 94 NNE 7 11 30 1016 10 16.0934 N/A
8:56 am 08:56 Cloudy 54 12 52 11 94 94 N 8 13 30 1016 10 16.0934 N/A
9:17 am 09:17 Cloudy 54 12 52 11 94 94 N 8 13 30.03 1017 7 11.26538 N/A
9:37 am 09:37 Cloudy 54 12 52 11 94 94 NNE 9 15 30 1016 7 11.26538 N/A
9:56 am 09:56 Cloudy 54 12 52 11 94 94 NE 9 15 30 1016 10 16.0934 N/A
10:17 am 10:17 Cloudy 54 12 52 11 94 94 NNE 9 15 30 1016 10 16.0934 N/A
10:37 am 10:37 Cloudy 54 12 52 11 94 94 NNE 10 17 30 1016 7 11.26538 N/A
10:56 am 10:56 Cloudy 54 12 54 12 100 100 NNE 9 15 30 1016 10 16.0934 N/A
11:17 am 11:17 Cloudy 54 12 54 12 100 100 N 12 19 30 1016 10 16.0934 N/A
11:36 am 11:36 Cloudy 55 13 54 12 94 94 NNE 13 20 30 1016 10 16.0934 N/A
11:56 am 11:56 Cloudy 55 13 54 12 94 94 N 8 13 30.03 1017 10 16.0934 N/A
12:17 pm 12:17 Cloudy 55 13 54 12 94 94 N 10 17 30.03 1017 5 8.0467 N/A
12:36 pm 12:36 Cloudy 55 13 54 12 94 94 N 13 20 30 1016 7 11.26538 N/A
12:57 pm 12:57 Cloudy 55 13 54 12 94 94 NNE 15 24 30 1016 5 8.0467 N/A
1:17 pm 13:17 Cloudy 55 13 54 12 94 94 NNE 15 24 30 1016 10 16.0934 N/A
1:36 pm 13:36 Cloudy 55 13 54 12 94 94 NNE 14 22 30 1016 10 16.0934 N/A
1:56 pm 13:56 Cloudy 54 12 54 12 100 100 NNE 15 24 29.97 1015 10 16.0934 N/A
2:17 pm 14:17 Cloudy 54 12 54 12 100 100 NNE 13 20 29.97 1015 7 11.26538 N/A
2:36 pm 14:36 Cloudy 54 12 54 12 100 100 N 13 20 29.97 1015 5 8.0467 N/A
2:57 pm 14:57 Cloudy 54 12 54 12 100 100 NNE 13 20 29.97 1015 3 4.82802 N/A
3:17 pm 15:17 Cloudy 54 12 54 12 100 100 NNE 15 24 29.97 1015 3 4.82802 N/A
3:36 pm 15:36 Cloudy 54 12 52 11 94 94 N 14 22 29.97 1015 4 6.43736 N/A
3:57 pm 15:57 Cloudy 54 12 54 12 100 100 N 12 19 29.97 1015 7 11.26538 N/A
4:17 pm 16:17 Cloudy 54 12 54 12 100 100 N 16 26 29.97 1015 10 16.0934 N/A
4:36 pm 16:36 Cloudy 54 12 52 11 94 94 N 17 28 29.97 1015 10 16.0934 N/A
4:57 pm 16:57 Cloudy 54 12 52 11 94 94 N 21 33 29.97 1015 3 4.82802 N/A
5:17 pm 17:17 Cloudy 54 12 52 11 94 94 N 15 24 29.97 1015 5 8.0467 N/A
5:36 pm 17:36 Cloudy 54 12 52 11 94 94 N 17 28 30 1016 2.5 4.02335 N/A
5:57 pm 17:57 Cloudy 54 12 52 11 94 94 N 18 30 30 1016 4 6.43736 N/A
6:17 pm 18:17 Cloudy 54 12 52 11 94 94 N 21 33 30 1016 5 8.0467 N/A
6:36 pm 18:36 Cloudy 52 11 50 10 94 94 N 20 31 30.03 1017 10 16.0934 N/A
6:57 pm 18:57 Cloudy 52 11 50 10 94 94 N 16 26 30.03 1017 10 16.0934 N/A
7:17 pm 19:17 Cloudy 52 11 50 10 94 94 N 15 24 30.03 1017 10 16.0934 N/A
7:36 pm 19:36 Cloudy 52 11 50 10 94 94 N 16 26 30.03 1017 10 16.0934 N/A
7:57 pm 19:57 Cloudy 52 11 50 10 94 94 N 10 17 30.03 1017 10 16.0934 N/A
8:17 pm 20:17 Cloudy 52 11 50 10 94 94 N 9 15 30.03 1017 10 16.0934 N/A
8:36 pm 20:36 Cloudy 52 11 50 10 94 94 N 12 19 30.03 1017 10 16.0934 N/A
8:57 pm 20:57 Cloudy 52 11 52 11 100 100 N 10 17 30.03 1017 10 16.0934 N/A
9:17 pm 21:17 Cloudy 54 12 52 11 94 94 NNE 12 19 30 1016 10 16.0934 N/A
9:36 pm 21:36 Cloudy 54 12 50 10 88 88 N 12 19 30 1016 10 16.0934 N/A
9:57 pm 21:57 Cloudy 52 11 50 10 94 94 N 8 13 30.03 1017 10 16.0934 N/A
10:17 pm 22:17 Cloudy 54 12 50 10 88 88 N 12 19 30.03 1017 10 16.0934 N/A
10:36 pm 22:36 Cloudy 54 12 50 10 88 88 N 10 17 30.03 1017 10 16.0934 N/A
10:57 pm 22:57 Cloudy 54 12 50 10 88 88 N 10 17 30.03 1017 10 16.0934 N/A
11:17 pm 23:17 Cloudy 54 12 50 10 88 88 N 8 13 30.03 1017 10 16.0934 N/A
11:36 pm 23:36 Cloudy 54 12 52 11 94 94 N 14 22 30 1016 10 16.0934 N/A
11:57 pm 23:57 Cloudy 54 12 52 11 94 94 NNW 10 17 30 1016 7 11.26538 N/A

Powered by AerisWeather